TimeEDT,TemperatureF,Dew PointF,Humidity,Sea Level PressureIn,VisibilityMPH,Wind Direction,Wind SpeedMPH,Gust SpeedMPH,PrecipitationIn,Events,Conditions,WindDirDegrees,DateUTC
12:15 AM,69.8,66.2,88,30.06,7.0,SSW,5.8,-,N/A,,Clear,200,2013-09-20 04:15:00
12:35 AM,69.8,66.2,88,30.06,10.0,SSW,5.8,-,N/A,,Clear,200,2013-09-20 04:35:00
12:55 AM,69.8,66.2,88,30.05,10.0,South,8.1,-,N/A,,Clear,190,2013-09-20 04:55:00
1:15 AM,69.8,64.4,83,30.05,10.0,South,6.9,-,N/A,,Clear,190,2013-09-20 05:15:00
1:35 AM,69.8,64.4,83,30.05,10.0,SSE,3.5,-,N/A,,Clear,160,2013-09-20 05:35:00
1:55 AM,69.8,64.4,83,30.05,10.0,South,4.6,-,N/A,,Clear,180,2013-09-20 05:55:00
2:15 AM,69.8,64.4,83,30.05,10.0,South,8.1,-,N/A,,Clear,190,2013-09-20 06:15:00
2:35 AM,69.8,64.4,83,30.05,10.0,South,9.2,-,N/A,,Clear,190,2013-09-20 06:35:00
2:55 AM,69.8,64.4,83,30.05,10.0,SSW,5.8,-,N/A,,Clear,200,2013-09-20 06:55:00
3:15 AM,69.8,64.4,83,30.05,10.0,SSW,4.6,-,N/A,,Clear,200,2013-09-20 07:15:00
3:35 AM,68.0,64.4,88,30.05,10.0,SSW,3.5,-,N/A,,Clear,200,2013-09-20 07:35:00
3:55 AM,68.0,64.4,88,30.05,10.0,SSW,4.6,-,N/A,,Clear,200,2013-09-20 07:55:00
4:15 AM,68.0,64.4,88,30.05,10.0,SSW,4.6,-,N/A,,Clear,200,2013-09-20 08:15:00
4:35 AM,68.0,64.4,88,30.04,10.0,SSW,4.6,-,N/A,,Clear,200,2013-09-20 08:35:00
4:55 AM,68.0,64.4,88,30.04,10.0,SSW,6.9,-,N/A,,Clear,200,2013-09-20 08:55:00
5:15 AM,68.0,62.6,83,30.04,10.0,SSW,6.9,-,N/A,,Clear,210,2013-09-20 09:15:00
5:35 AM,68.0,62.6,83,30.03,10.0,SSW,6.9,-,N/A,,Clear,210,2013-09-20 09:35:00
5:55 AM,68.0,62.6,83,30.03,10.0,SSW,6.9,-,N/A,,Clear,210,2013-09-20 09:55:00
6:15 AM,68.0,62.6,83,30.03,10.0,SSW,6.9,-,N/A,,Clear,200,2013-09-20 10:15:00
6:35 AM,68.0,62.6,83,30.03,10.0,SSW,4.6,-,N/A,,Clear,200,2013-09-20 10:35:00
6:55 AM,68.0,62.6,83,30.03,10.0,South,5.8,-,N/A,,Clear,190,2013-09-20 10:55:00
7:15 AM,68.0,62.6,83,30.04,10.0,South,6.9,-,N/A,,Clear,190,2013-09-20 11:15:00
7:35 AM,66.2,62.6,88,30.04,10.0,South,5.8,-,N/A,,Clear,190,2013-09-20 11:35:00
7:55 AM,68.0,62.6,83,30.03,10.0,South,4.6,-,N/A,,Clear,190,2013-09-20 11:55:00
8:15 AM,68.0,62.6,83,30.04,10.0,South,4.6,-,N/A,,Clear,190,2013-09-20 12:15:00
8:35 AM,69.8,62.6,78,30.04,10.0,South,6.9,-,N/A,,Clear,190,2013-09-20 12:35:00
8:55 AM,71.6,62.6,73,30.04,10.0,SSW,6.9,-,N/A,,Clear,200,2013-09-20 12:55:00
9:15 AM,71.6,62.6,73,30.04,10.0,SSW,6.9,-,N/A,,Clear,200,2013-09-20 13:15:00
9:35 AM,71.6,64.4,78,30.04,10.0,SSW,8.1,-,N/A,,Clear,210,2013-09-20 13:35:00
9:55 AM,73.4,64.4,73,30.05,10.0,SW,8.1,-,N/A,,Clear,220,2013-09-20 13:55:00
10:15 AM,73.4,64.4,73,30.05,10.0,SW,8.1,-,N/A,,Clear,230,2013-09-20 14:15:00
10:35 AM,75.2,62.6,65,30.04,10.0,SW,8.1,-,N/A,,Clear,230,2013-09-20 14:35:00
10:55 AM,75.2,62.6,65,30.04,10.0,SW,11.5,-,N/A,,Clear,230,2013-09-20 14:55:00
11:15 AM,77.0,64.4,65,30.04,10.0,SW,10.4,-,N/A,,Clear,230,2013-09-20 15:15:00
11:35 AM,77.0,64.4,65,30.03,10.0,SW,12.7,16.1,N/A,,Clear,220,2013-09-20 15:35:00
11:55 AM,78.8,64.4,61,30.03,10.0,SW,10.4,-,N/A,,Clear,230,2013-09-20 15:55:00
12:15 PM,78.8,64.4,61,30.02,10.0,SW,8.1,-,N/A,,Clear,230,2013-09-20 16:15:00
12:35 PM,80.6,64.4,58,30.01,10.0,SSW,11.5,-,N/A,,Clear,210,2013-09-20 16:35:00
12:55 PM,80.6,64.4,58,30.01,10.0,WSW,6.9,-,N/A,,Scattered Clouds,240,2013-09-20 16:55:00
1:15 PM,82.4,64.4,54,30.00,10.0,SW,12.7,16.1,N/A,,Mostly Cloudy,230,2013-09-20 17:15:00
1:35 PM,80.6,62.6,54,29.99,10.0,SW,11.5,-,N/A,,Scattered Clouds,230,2013-09-20 17:35:00
1:55 PM,80.6,64.4,58,29.99,10.0,WSW,9.2,-,N/A,,Scattered Clouds,240,2013-09-20 17:55:00
2:15 PM,82.4,64.4,54,29.97,10.0,SW,6.9,16.1,N/A,,Mostly Cloudy,230,2013-09-20 18:15:00
2:35 PM,84.2,64.4,51,29.96,10.0,SW,6.9,17.3,N/A,,Mostly Cloudy,220,2013-09-20 18:35:00
2:55 PM,80.6,62.6,54,29.95,10.0,SW,6.9,-,N/A,,Mostly Cloudy,230,2013-09-20 18:55:00
3:15 PM,82.4,62.6,51,29.94,7.0,SW,9.2,-,N/A,,Mostly Cloudy,230,2013-09-20 19:15:00
3:35 PM,80.6,64.4,58,29.94,7.0,SW,10.4,-,N/A,,Mostly Cloudy,220,2013-09-20 19:35:00
3:55 PM,82.4,64.4,54,29.93,10.0,South,8.1,-,N/A,,Overcast,180,2013-09-20 19:55:00
4:15 PM,82.4,62.6,51,29.92,10.0,SSW,8.1,-,N/A,,Mostly Cloudy,200,2013-09-20 20:15:00
4:35 PM,80.6,64.4,58,29.91,10.0,SW,8.1,-,N/A,,Overcast,220,2013-09-20 20:35:00
4:55 PM,80.6,62.6,54,29.91,10.0,SW,8.1,-,N/A,,Scattered Clouds,230,2013-09-20 20:55:00
5:15 PM,82.4,62.6,51,29.90,10.0,South,9.2,-,N/A,,Scattered Clouds,190,2013-09-20 21:15:00
5:35 PM,80.6,62.6,54,29.91,10.0,SSW,9.2,-,N/A,,Scattered Clouds,210,2013-09-20 21:35:00
5:55 PM,80.6,62.6,54,29.90,10.0,SSW,9.2,-,N/A,,Clear,200,2013-09-20 21:55:00
6:15 PM,80.6,62.6,54,29.89,5.0,South,8.1,-,N/A,,Clear,180,2013-09-20 22:15:00
6:35 PM,78.8,62.6,57,29.89,10.0,South,4.6,-,N/A,,Clear,180,2013-09-20 22:35:00
6:55 PM,78.8,64.4,61,29.89,10.0,South,4.6,-,N/A,,Clear,170,2013-09-20 22:55:00
7:15 PM,77.0,64.4,65,29.89,10.0,South,3.5,-,N/A,,Clear,170,2013-09-20 23:15:00
7:35 PM,75.2,64.4,69,29.88,10.0,SSE,4.6,-,N/A,,Clear,150,2013-09-20 23:35:00
7:55 PM,75.2,64.4,69,29.88,10.0,SSE,5.8,-,N/A,,Clear,160,2013-09-20 23:55:00
8:15 PM,75.2,64.4,69,29.88,10.0,SSE,5.8,-,N/A,,Clear,160,2013-09-21 00:15:00
8:35 PM,75.2,64.4,69,29.88,10.0,SSE,4.6,-,N/A,,Clear,160,2013-09-21 00:35:00
8:55 PM,73.4,64.4,73,29.88,10.0,SSE,4.6,-,N/A,,Clear,160,2013-09-21 00:55:00
9:15 PM,73.4,64.4,73,29.88,10.0,SSE,3.5,-,N/A,,Clear,160,2013-09-21 01:15:00
9:35 PM,73.4,64.4,73,29.88,10.0,South,4.6,-,N/A,,Clear,170,2013-09-21 01:35:00
9:55 PM,73.4,64.4,73,29.87,10.0,South,5.8,-,N/A,,Clear,170,2013-09-21 01:55:00
10:15 PM,75.2,64.4,69,29.87,10.0,South,6.9,-,N/A,,Clear,180,2013-09-21 02:15:00
10:35 PM,75.2,64.4,69,29.86,10.0,South,6.9,-,N/A,,Clear,180,2013-09-21 02:35:00
10:55 PM,73.4,64.4,73,29.86,10.0,South,5.8,-,N/A,,Scattered Clouds,180,2013-09-21 02:55:00
11:15 PM,73.4,64.4,73,29.86,10.0,SSW,6.9,-,N/A,,Mostly Cloudy,200,2013-09-21 03:15:00
11:35 PM,73.4,64.4,73,29.86,10.0,SSW,5.8,-,N/A,,Overcast,210,2013-09-21 03:35:00
11:55 PM,73.4,62.6,69,29.86,10.0,SSW,5.8,-,N/A,,Overcast,210,2013-09-21 03:55:00